AAUSAT2
1 32788U 08021F 22034.93928749 .00002995 00000-0 26985-3 0 9999
2 32788 97.5238 25.1942 0010455 205.1450 154.9264 14.96263925748466
DO-64
1 32789U 08021G 22034.34322611 .00006371 00000-0 38830-3 0 9995
2 32789 97.3547 65.7162 0012920 71.3506 288.9126 15.10628960751668
CO-66
1 32791U 08021J 22034.46719366 .00001618 00000-0 16539-3 0 9999
2 32791 97.5972 15.4060 0011410 278.4449 81.5477 14.91857556747218
RS-30
1 32953U 08025A 22034.93835922 .00000021 00000-0 80971-4 0 9991
2 32953 82.5003 266.9555 0018888 190.4495 169.6192 12.43107010621748
PRISM
1 33493U 09002B 22034.71567069 .00003387 00000-0 28856-3 0 9998
2 33493 98.2185 13.9002 0013572 241.5165 118.4689 14.98445088708940
NOAA-19
1 33591U 09005A 22034.89958157 .00000072 00000-0 63909-4 0 9998
2 33591 99.1651 66.1224 0013645 199.6423 160.4224 14.12527134669334
SRMSAT
1 37841U 11058D 22034.52796579 .00000331 00000-0 36713-4 0 9990
2 37841 19.9735 344.4298 0011666 312.9030 205.5168 14.10723382532302
HRBE
1 37855U 11061F 22034.58415521 .00007935 00000-0 37051-3 0 9992
2 37855 101.7163 83.3904 0161693 102.5087 259.4269 15.09453365561027
RS-40
1 38735U 12041C 22034.83793318 .00000013 00000-0 26349-4 0 9999
2 38735 82.4801 348.8135 0016473 306.2112 53.7449 12.42583883431924
ZACUBE-1
1 39417U 13066B 22034.41765751 .00000936 00000-0 12141-3 0 9997
2 39417 97.6204 12.1510 0059596 123.1939 237.5009 14.81808227443273
Delfi-N3xt
1 39428U 13066N 22034.79745687 .00002880 00000-0 45520-3 0 9993
2 39428 97.8051 335.0656 0118771 345.7613 14.0255 14.68442446438915
GOMX-1
1 39430U 13066Q 22034.95039524 .00000579 00000-0 11196-3 0 9995
2 39430 97.8163 309.7569 0151357 105.4754 256.3232 14.59830615436819
LO-74
1 39440U 13066AA 22034.63478013 .00000972 00000-0 13981-3 0 9992
2 39440 97.7090 358.0087 0078718 204.6590 155.0850 14.76528575440532
AO-73
1 39444U 13066AE 22034.66163544 .00001503 00000-0 18667-3 0 9996
2 39444 97.6093 14.7762 0058707 111.6838 249.0642 14.82776889441693
SPROUT
1 39770U 14029E 22034.74741050 .00003439 00000-0 36860-3 0 9996
2 39770 97.9296 151.1667 0008838 160.5691 199.5914 14.89295740417753
DTUSAT-2
1 40030U 14033W 22034.50364666 .00001589 00000-0 17324-3 0 9998
2 40030 97.9304 326.8729 0012777 129.9856 230.2485 14.89338374414218
EO-80
1 40032U 14033Y 22034.74168629 .00001573 00000-0 17172-3 0 9991
2 40032 97.9311 327.1222 0012736 130.0854 230.1482 14.89303134413712
HODOYOSHI-1
1 40299U 14070B 22034.85623698 .00003383 00000-0 13596-3 0 9998
2 40299 97.2623 106.9444 0010884 247.8363 223.7506 15.25547557402688
FIREBIRD FU3
1 40377U 15003B 22034.52458227 .00010668 00000-0 35692-3 0 9995
2 40377 99.1125 229.9992 0110858 117.0629 244.1967 15.25429176387970
FIREBIRD FU4
1 40378U 15003C 22034.49195368 .00011648 00000-0 38842-3 0 9995
2 40378 99.1128 230.1420 0110794 116.8916 244.3691 15.25503704387975
GRIFEX
1 40379U 15003D 22034.75951449 .00012867 00000-0 48721-3 0 9996
2 40379 99.1160 217.7055 0123070 154.0584 206.6886 15.20223389387298
XW-2A
1 40903U 15049E 22034.81265160 .00012399 00000-0 23647-3 0 9994
2 40903 97.2051 93.5255 0009773 245.5520 179.5709 15.48249293358551
XW-2C
1 40906U 15049H 22034.80682081 .00003491 00000-0 17662-3 0 9994
2 40906 97.4922 39.4531 0016113 102.6113 336.3826 15.17584812352648
XW-2D
1 40907U 15049J 22034.81108778 .00003917 00000-0 19536-3 0 9997
2 40907 97.4910 39.3482 0015465 98.5994 340.0956 15.18019941352686
LILACSAT-2
1 40908U 15049K 22034.84414677 .00001800 00000-0 99866-4 0 9993
2 40908 97.5137 36.8660 0017042 115.8896 3.8734 15.14932387352251
XW-2E
1 40909U 15049L 22034.77307427 .00005954 00000-0 27125-3 0 9992
2 40909 97.4670 43.6085 0014654 84.0843 88.5908 15.20954466353078
XW-2F
1 40910U 15049M 22034.84332558 .00005929 00000-0 27403-3 0 9996
2 40910 97.4742 42.7839 0015727 84.2692 36.5453 15.20446136352867
XW-2B
1 40911U 15049N 22034.83508166 .00003772 00000-0 18873-3 0 9991
2 40911 97.4898 40.0107 0015448 99.8739 21.6899 15.17925749352578
DCBB
1 40912U 15049P 22034.83832353 .00006925 00000-0 29501-3 0 9993
2 40912 97.4421 47.1515 0015449 56.4545 66.7923 15.23177546353397
TW-1A
1 40928U 15051D 22034.81214830 .00019638 00000-0 34434-3 0 9991
2 40928 97.0572 59.4950 0009716 148.3420 27.2869 15.50545451357477
IO-86
1 40931U 15052B 22030.77250243 .00000823 00000-0 25367-4 0 9997
2 40931 5.9970 71.1209 0013587 17.1532 128.4088 14.76725120342951
ATHENOXAT-1
1 41168U 15077C 22034.55326735 .00008618 00000-0 38143-3 0 9992
2 41168 14.9910 0.0861 0010054 162.4330 343.8493 15.17507080339913
ChubuSat-2
1 41338U 16012B 22034.74240807 .00001670 00000-0 12149-3 0 9996
2 41338 31.0021 154.8915 0013574 266.9065 93.0017 15.00839748327372
ChubuSat-3
1 41339U 16012C 22034.74425495 .00001394 00000-0 99996-4 0 9994
2 41339 31.0097 151.8907 0013359 275.6642 84.2471 15.00960326327376
Horyu-4
1 41340U 16012D 22034.67112391 .00002953 00000-0 21093-3 0 9990
2 41340 31.0047 132.8693 0013639 310.4402 49.5044 15.02408831327580
e-st@r-II
1 41459U 16025D 22034.85270589 .00005077 00000-0 23853-3 0 9995
2 41459 98.1668 190.6070 0154606 2.3892 357.8032 15.10089008317317
AAUSAT4
1 41460U 16025E 22034.68108339 .00008903 00000-0 38758-3 0 9992
2 41460 98.1651 195.5925 0138952 342.5425 17.1048 15.14117163317660
LO-87
1 41557U 16033B 22034.89606337 .00008305 00000-0 27614-3 0 9997
2 41557 97.3896 132.7656 0013273 128.7415 8.3996 15.31345831316920
NuSat2
1 41558U 16033C 22034.89680784 .00007823 00000-0 24375-3 0 9991
2 41558 97.4052 137.7368 0012502 120.6557 334.2641 15.33465092317162
Lapan A3
1 41603U 16040E 22034.90994390 .00000981 00000-0 48173-4 0 9994
2 41603 97.2265 77.6444 0011476 271.0201 214.3710 15.20275676311746
Pratham
1 41783U 16059A 22034.40196929 .00000247 00000-0 56619-4 0 9999
2 41783 97.9341 81.1976 0032407 235.9466 123.8659 14.63227141286024
TY-1
1 41844U 16066D 22034.89467803 .00008090 00000-0 30572-3 0 9993
2 41844 97.3949 47.8091 0015572 46.5600 71.8531 15.27133283291208
CAS-2T
1 41847U 16066G 22034.44246680 .00000530 00000-0 90901-4 0 9999
2 41847 98.5706 99.1637 0363717 250.4985 105.6583 14.38343912275084
EO-88
1 42017U 17008BX 22034.63260146 .00012926 00000-0 44106-3 0 9997
2 42017 97.2881 103.0089 0005914 21.9123 338.2370 15.30447242276585
CAS-4B
1 42759U 17034B 22034.87952010 .00002704 00000-0 17294-3 0 9994
2 42759 43.0189 348.3122 0007224 177.9667 284.9893 15.10822907256141
CAS-4A
1 42761U 17034D 22034.92332947 .00002804 00000-0 17838-3 0 9999
2 42761 43.0193 346.9581 0007672 180.2261 283.3123 15.10911130256153
NIUSat
1 42766U 17036B 22034.74424548 .00006780 00000-0 28147-3 0 9997
2 42766 97.2214 77.4381 0016266 81.4785 278.8296 15.24028924256424
Aalto 1
1 42775U 17036L 22034.73978314 .00005585 00000-0 23452-3 0 9997
2 42775 97.2175 77.5272 0014906 80.7445 279.5478 15.23741424256408
URSA MAIOR
1 42776U 17036M 22034.76070517 .00005865 00000-0 24340-3 0 9997
2 42776 97.2188 78.1618 0014606 79.9108 280.3777 15.24122035256434
